CZ-4C R/B

Satellite information

Favourite Embed

Satellite Type and Status

ROCKET BODYIN ORBIT

Key statistics

Satellite CZ-4C R/B at a glance.

Uptime

1522

Days in orbit

Revolutions

≈ 14.6

Per day

Orbit

SSO

Sun Synchronous Orbit

Inclination

98.5

Latest

Satellite identification and parameters

Extended collection of information and parameters for CZ-4C R/B.

Object identification

Identified? True

Debris? False

Object name: CZ-4C R/B

International designator: 2021-062C

Object number (NORAD): 49010

Object ID (CCSDS): 49010

Country: PEOPLES REPUBLIC OF CHINA (PRC)

Current information (Y/N): Y

RCS size: LARGE

Orbital parameters

Period: 98.839 minutes

Inclination: 98.549 deg

SMA: 7081.291 km

Apoapsis: 797.843 km

Periapsis: 608.469 km

RAAN: 322.6466 deg

Eccentricy: 0.01337139

Argument of periapsis: 87.5814 deg

Mean anomaly: 274.0684 deg

Mean motion: 14.56914592 rev/day

Mean motion (dot): 0.0000094 rev/day2

B* drag term: 0.00019631426 1/REarth

Two-line elements (TLE)

Creation date: Sept. 3, 2025, 2:21 a.m.

Reference frame: TEME

Reference center: EARTH

Epoch: Sept. 2, 2025, 6:23 p.m. UTC

TLE line 0: 0 CZ-4C R/B

TLE line 1: 1 49010U 21062C 25245.76618994 .00000940 00000-0 19631-3 0 9999

TLE line 2: 2 49010 98.5490 322.6466 0133714 87.5814 274.0684 14.56914592221273

Live tracking on map

Real-time ground track for satellite CZ-4C R/B.

In-orbit conjunctions

A list of the most updated potential collisions computed for object CZ-4C R/B.

Target Orbit TCA Probability of collision Miss distance Type
COSMOS 1375 DEB LEO 2024-10-04 19:17:56 0.0001066503 633.0 (m) DEBRIS

Associated space launch

The newer FY-3 series is an improved generation of polar-orbiting heliosynchronous weather satellites.

CZ-4C R/B was lifted into orbit during the mission ‘Long March 4C | Fengyun-3E’, on board a Long March 4C space rocket.

The launch took place on July 4, 2021, 11:28 p.m. from Launch Area 4 (SLS-2 / 603).

For more information about the launch, click the button.

Launch to space Long March 4C | Fengyun-3E
Long March 4C | Fengyun-3E

Agency: N/A

Status: Launch Successful

Launch date: July 4, 2021, 11:28 p.m. UTC

Rocket: Long March 4C

Launch pad: Launch Area 4 (SLS-2 / 603)

Location: Jiuquan Satellite Launch Center, People's Republic of China

...

Latest news about this satellite

News about space launch
China lofts Fengyun 3E polar weather satellite

China has successfully launched a new polar weather satellite, Fengyun 3E.  Liftoff of the mission took place at 23:28 UTC on 4 July 2021 from launch site SLS-2 at the Jiuquan Satellite Launch Center using a Chang Zheng 4C rocket.

News about space launch
China launches Fengyun weather satellite into polar orbit

A new Chinese Fengyun weather satellite launched Sunday and flew into an early morning polar orbit to feed data into global computer models, adding inputs that international weather officials said will improve medium and long-range forecasts.


Newsletter sign-up

Weekly statistics, charts and insights to help you stay on top of the space industry.